Home > Weather > Ponce > Past weeks

Flag for Puerto Rico Past Weather in Ponce, Puerto Rico — Yesterday and Last 2 Weeks

Now
77 °F

Passing clouds.


Feels Like: 78 °F
Forecast: 74 / 90 °F
Wind: No wind

Location: Aquadilla / Borinquen

Current Time: Aug 27, 2016 at 10:29:30 PM

Latest Report: Aug 27, 2016 at 7:50 PM


Visibility: 10 mi

Pressure: 29.96 "Hg

Humidity: 89%

Dew Point: 73 °F

Location of PonceLocation

Past Weather in Ponce — Graph

°F

Ponce Temperature Yesterday

Maximum temperature yesterday: 86 °F (at 9:50 AM)
Minimum temperature yesterday: 73 °F (at 2:15 PM)
Average temperature yesterday: 77 °F

High & Low Weather Summary for the Past Weeks

 TemperatureHumidityPressure
High88 °F (Aug 13, 11:50 AM)100% (Aug 18, 12:50 AM)30.09 "Hg (Aug 18, 12:50 AM)
Low70 °F (Aug 14, 2:50 PM)55% (Aug 23, 1:50 PM)29.83 "Hg (Aug 24, 3:50 PM)
Average81 °F80%29.99 "Hg
* Reported Aug 12 7:50 PM — Aug 27 7:50 PM, Ponce, Weather by CustomWeather, © 2016

Note: Actual official high and low records may vary slightly from our data, if they occured in-between our weather recording intervals... More about our weather records

Advertising

Ponce Weather History for the Previous 24 Hours

Scroll right to see more
 ConditionsComfort  
Time TempWeatherWind HumidityBarometerVisibility
7:50 PM
Sat, Aug 27
77 °FPassing clouds.No wind89%29.96 "Hg10 mi
6:50 PM77 °FScattered clouds.No wind89%29.94 "Hg10 mi
5:50 PM81 °FScattered clouds.No wind79%29.94 "Hg10 mi
4:50 PM81 °FMostly cloudy.6 mph79%29.93 "Hg10 mi
3:50 PM82 °FThunderstorms. Broken clouds.6 mph70%29.93 "Hg10 mi
2:50 PM88 °FThundershowers. Broken clouds.12 mph66%29.93 "Hg10 mi
1:50 PM82 °FThundershowers. Broken clouds.8 mph79%29.94 "Hg10 mi
12:50 PM82 °FLight rain. Broken clouds.12 mph79%29.96 "Hg10 mi
11:50 AM84 °FBroken clouds.8 mph74%29.97 "Hg10 mi
10:50 AM88 °FSunny.13 mph66%29.97 "Hg10 mi
9:50 AM84 °FSunny.7 mph70%29.98 "Hg10 mi
8:50 AM82 °FSunny.5 mph74%29.97 "Hg10 mi
7:50 AM79 °FScattered clouds.3 mph84%29.95 "Hg10 mi
6:50 AM75 °FPassing clouds.3 mph89%29.94 "Hg10 mi
1:50 AM73 °FClear.No wind94%29.95 "Hg10 mi
10:50 PM
Fri, Aug 26
73 °FClear.No wind89%29.98 "Hg10 mi
Weather by CustomWeather, © 2016

See weather overviewHow to use our weather pages